Regional Weather Roundup
Issued by NWS

Home | Current Version | Previous Version | Graphics & Text | Print | Product List | Glossary On
Versions: 1 2 3 4 5 6 7 8 9 10 11 12 13 14 15 16 17 18 19 20 21 22 23 24 25 26 27 28 29 30 31 32 33 34 35 36 37 38 39 40 41 42 43 44 45 46 47 48 49 50
000
ASUS44 KMEG 280010
RWRTN
TENNESSEE HOURLY STATE WEATHER ROUNDUP
NATIONAL WEATHER SERVICE MEMPHIS TN
700 PM CDT FRI MAR 27 2015

TNZ002-004-019-021-049-052-054-088>092-280100-
WEST TENNESSEE

CITY           SKY/WX    TMP DP  RH WIND       PRES   REMARKS
MEMPHIS INTL   PTCLDY    46  31  55 N12       30.12R
NWS MEMPHIS      N/A     44 N/A N/A MISG        N/A
JACKSON        PTCLDY    41  26  55 N13       30.13R
DYERSBURG      CLEAR     39  16  38 N14       30.16R WCI  31
UNION CITY     CLOUDY    37  28  70 N12       30.14R WCI  30
PARIS          CLOUDY    36  27  69 N9        30.12R WCI  29
LEXINGTON      MOCLDY    39  27  60 NW12      30.10R WCI  32
SAVANNAH       MOCLDY    43  28  56 N14       30.09R
$$

TNZ008-025-027-028-033-062-065-066-280100-
NORTH MIDDLE TENNESSEE

CITY           SKY/WX    TMP DP  RH WIND       PRES   REMARKS
NASHVILLE      CLOUDY    39  31  72 N12G20    30.07R WCI  32
CLARKSVILLE    CLOUDY    37  28  70 N12       30.10R WCI  29
SMYRNA         CLOUDY    40  34  79 N13       30.08R WCI  32
COOKEVILLE     MOCLDY    39  30  70 N8        29.99R WCI  34
CROSSVILLE     MOCLDY    38  26  62 NW13      29.95R WCI  30
$$

TNZ061-075-076-078-094-096-097-280100-
SOUTH MIDDLE TENNESSEE

CITY           SKY/WX    TMP DP  RH WIND       PRES   REMARKS
FAYETTEVILLE   PTCLDY    37  34  87 N7        30.02S WCI  32
TULLAHOMA      CLOUDY    37  34  87 N12       30.02R WCI  30
WINCHESTER     CLOUDY    37  36  93 NW8       30.02R WCI  31
MCMINNVILLE    MOCLDY    39  30  70 N9        30.01R WCI  33
COLUMBIA       CLOUDY    39  39 100 NW5       30.04R
SHELBYVILLE    CLOUDY    39  36  87 N7        30.04R WCI  34
$$

TNZ017-018-042-046-047-280100-
NORTHEAST TENNESSEE

CITY           SKY/WX    TMP DP  RH WIND       PRES   REMARKS
TRI CITIES     CLOUDY    43  25  49 NW15G21   29.85R
ELIZABETHTON   MOCLDY    41  23  48 NW10      29.83S
$$

TNZ012-013-036-069-073-074-280100-
CENTRAL EAST TENNESSEE

CITY           SKY/WX    TMP DP  RH WIND       PRES   REMARKS
KNOXVILLE      CLOUDY    42  29  59 N9        29.93R
OAK RIDGE      MOCLDY    44  28  53 VRB3      29.96R
GATLINBURG     CLOUDY    43  28  56 NW12      29.91R
MORRISTOWN     MOCLDY    43  28  56 N10       29.91R
$$

TNZ083-085-099-280100-
SOUTHEAST TENNESSEE

CITY           SKY/WX    TMP DP  RH WIND       PRES   REMARKS
CHATTANOOGA    MOCLDY    47  29  49 NW13      29.97R
$$

SKY/WX REPORTED AS FAIR MEANS FEW OR NO CLOUDS BELOW
12 THOUSAND FEET.




USA.gov is the U.S. government's official web portal to all federal, state and local government web resources and services.